NOAA 16 DEB

Satellite information

Favourite Embed

Satellite Type and Status

DEBRISIN ORBIT

Key statistics

Satellite NOAA 16 DEB at a glance.

Uptime

9053

Days in orbit

Revolutions

≈ 14.3

Per day

Orbit

SSO

Sun Synchronous Orbit

Inclination

98.9

Latest

Satellite identification and parameters

Extended collection of information and parameters for NOAA 16 DEB.

Object identification

Identified? True

Debris? True

Object name: NOAA 16 DEB

International designator: 2000-055DR

Object number (NORAD): 41212

Object ID (CCSDS): 41212

Country: UNITED STATES OF AMERICA (US)

Current information (Y/N): Y

RCS size: SMALL

Orbital parameters

Period: 100.423 minutes

Inclination: 98.9315 deg

SMA: 7156.757 km

Apoapsis: 789.136 km

Periapsis: 768.108 km

RAAN: 315.6524 deg

Eccentricy: 0.0014691

Argument of periapsis: 244.7026 deg

Mean anomaly: 115.2636 deg

Mean motion: 14.33931313 rev/day

Mean motion (dot): 0.00003809 rev/day2

B* drag term: 0.0013808 1/REarth

Two-line elements (TLE)

Creation date: July 3, 2025, 6:56 a.m.

Reference frame: TEME

Reference center: EARTH

Epoch: July 3, 2025, 4:26 a.m. UTC

TLE line 0: 0 NOAA 16 DEB

TLE line 1: 1 41212U 00055DR 25184.18503029 .00003809 00000-0 13808-2 0 9990

TLE line 2: 2 41212 98.9315 315.6524 0014691 244.7026 115.2636 14.33931313495114

Live tracking on map

Real-time ground track for satellite NOAA 16 DEB.

In-orbit conjunctions

A list of the most updated potential collisions computed for object NOAA 16 DEB.

Target Orbit TCA Probability of collision Miss distance Type
SL-8 R/B LEO 2025-04-22 07:46:33 0.0001208686 612.0 (m) ROCKET BODY
COSMOS 972 LEO 2025-04-04 00:19:06 0.0001498082 253.0 (m) PAYLOAD
PSLV R/B SSO 2025-03-04 02:49:01 0.00308006 52.0 (m) ROCKET BODY
FENGYUN 1C DEB SSO 2024-11-14 21:22:12 0.0001038015 615.0 (m) DEBRIS
COSMOS 1275 DEB LEO 2024-11-09 01:04:17 0.0008767932 223.0 (m) DEBRIS

Associated space launch

The NOAA K, L and M POES satellites begin the fifth generation of improved environmental monitoring in support of NOAA missions. The instrument payload has significant improvements and additions/deletions. The instrument changes have effected the spacecraft subsystems and data formats.

NOAA 16 DEB was lifted into orbit during the mission ‘Titan II SLV | NOAA 16’, on board a Titan II SLV space rocket.

The launch took place on Sept. 21, 2000, 10:22 a.m. from Space Launch Complex 4W.

For more information about the launch, click the button.

Launch to space Titan II SLV | NOAA 16
Titan II SLV | NOAA 16

Agency: N/A

Status: Launch Successful

Launch date: Sept. 21, 2000, 10:22 a.m. UTC

Rocket: Titan II SLV

Launch pad: Space Launch Complex 4W

Location: Vandenberg SFB, CA, USA

...

Latest news about this satellite

There are no fresh news available about this satellite. Check back as we update our databases every day.


Newsletter sign-up

Weekly statistics, charts and insights to help you stay on top of the space industry.